Location: Newark
(21.1700°N, 79.6500°E)
Time: 00:01:04
(UTC+00:00)

N. Korean satellite - Pass Details

Date: 10 December 2019
Orbit: 454 x 507 km, 97.2° (Epoch: 23 January)

Event Time Altitude Azimuth Distance (km) Brightness Sun altitude
Rises 00:23:24 0° 9° (N) 2,506 10.1 -10.3°
Reaches altitude 10° 00:25:28 10° 7° (N) 1,619 9.1 -9.9°
Maximum altitude 00:28:56 77° 282° (WNW) 476 6.4 -9.1°
Drops below altitude 10° 00:32:20 10° 195° (SSW) 1,591 9.3 -8.4°
Sets 00:34:21 0° 194° (SSW) 2,458 10.2 -8.0°
